| time (UTC) | temp F | wind direction | speed MPH | gust MPH | rain 1hr in | rain 24hr in | rain mn in | humidity % | barometer mb |
| 20260831210759 | 79 | 294 | 0.0 | 0.0 | 0.00 | 0.34 | 0.32 | 78 | 1010.8 |
| 20260831205259 | 81 | 228 | 0.0 | 0.0 | 0.00 | 0.34 | 0.32 | 78 | 1010.7 |
| 20260831204759 | 82 | 246 | 0.0 | 0.0 | 0.00 | 0.34 | 0.32 | 75 | 1010.8 |
| 20260831204259 | 83 | 248 | 0.0 | 0.0 | 0.00 | 0.34 | 0.32 | 77 | 1010.7 |
| 20260831203759 | 83 | 215 | 0.0 | 0.0 | 0.00 | 0.34 | 0.32 | 74 | 1010.6 |
| 20260831203259 | 83 | 209 | 0.0 | 0.0 | 0.00 | 0.34 | 0.32 | 73 | 1010.7 |
| 20260831202259 | 83 | 200 | 0.0 | 0.0 | 0.00 | 0.34 | 0.32 | 73 | 1010.7 |
| 20260831201759 | 84 | 221 | 0.0 | 0.0 | 0.00 | 0.34 | 0.32 | 71 | 1010.8 |
| 20260831201259 | 84 | 207 | 0.0 | 0.0 | 0.00 | 0.34 | 0.32 | 71 | 1010.9 |
| 20260831200759 | 84 | 222 | 0.0 | 0.0 | 0.00 | 0.34 | 0.32 | 72 | 1011.0 |
| 20260831200259 | 85 | 225 | 0.0 | 0.0 | 0.00 | 0.34 | 0.32 | 72 | 1011.1 |
| 20260831195759 | 84 | 182 | 0.0 | 0.0 | 0.00 | 0.34 | 0.32 | 70 | 1011.1 |
| 20260831195259 | 84 | 257 | 0.0 | 0.0 | 0.00 | 0.34 | 0.32 | 72 | 1011.1 |
| 20260831194759 | 83 | 215 | 0.0 | 0.0 | 0.00 | 0.34 | 0.32 | 72 | 1011.1 |
| 20260831194259 | 83 | 229 | 0.0 | 0.0 | 0.00 | 0.34 | 0.32 | 74 | 1011.3 |
| 20260831193259 | 83 | 193 | 0.0 | 0.0 | 0.00 | 0.34 | 0.32 | 72 | 1011.3 |
| 20260831192759 | 82 | 198 | 0.0 | 0.0 | 0.00 | 0.34 | 0.32 | 74 | 1011.4 |
| 20260831192259 | 82 | 225 | 0.0 | 0.0 | 0.00 | 0.34 | 0.32 | 75 | 1011.4 |
| 20260831191759 | 82 | 158 | 0.0 | 0.0 | 0.00 | 0.34 | 0.32 | 74 | 1011.5 |
| 20260831191259 | 82 | 197 | 0.0 | 0.0 | 0.00 | 0.34 | 0.32 | 74 | 1011.6 |
| 20260831190759 | 81 | 240 | 0.0 | 0.0 | 0.00 | 0.34 | 0.32 | 74 | 1011.6 |
| 20260831185759 | 82 | 321 | 0.0 | 0.0 | 0.00 | 0.34 | 0.32 | 75 | 1011.7 |
| 20260831185259 | 82 | 153 | 0.0 | 0.0 | 0.00 | 0.34 | 0.32 | 73 | 1011.7 |
| 20260831184759 | 82 | 295 | 0.0 | 0.0 | 0.00 | 0.34 | 0.32 | 73 | 1011.8 |
| 20260831184259 | 82 | 202 | 0.0 | 0.0 | 0.00 | 0.34 | 0.32 | 74 | 1011.7 |
| 20260831183259 | 82 | 273 | 0.0 | 0.0 | 0.00 | 0.34 | 0.32 | 74 | 1011.8 |
| 20260831182259 | 82 | 276 | 0.0 | 0.0 | 0.00 | 0.34 | 0.32 | 74 | 1011.8 |
| 20260831181759 | 82 | 319 | 0.0 | 0.0 | 0.00 | 0.34 | 0.32 | 74 | 1011.8 |
| 20260831181259 | 82 | 222 | 0.0 | 0.0 | 0.00 | 0.34 | 0.32 | 74 | 1011.9 |
| 20260831175755 | 81 | 180 | 0.0 | 0.0 | 0.00 | 0.34 | 0.32 | 78 | 1011.8 |
| 20260831175255 | 81 | 158 | 0.0 | 0.0 | 0.00 | 0.34 | 0.32 | 78 | 1011.8 |
| 20260831174755 | 81 | 219 | 0.0 | 0.0 | 0.00 | 0.34 | 0.32 | 77 | 1011.7 |
| 20260831174255 | 80 | 188 | 0.0 | 0.0 | 0.00 | 0.34 | 0.32 | 77 | 1011.9 |
| 20260831173755 | 80 | 211 | 0.0 | 0.0 | 0.00 | 0.34 | 0.32 | 78 | 1012.1 |
| 20260831172744 | 80 | 213 | 0.0 | 0.0 | 0.00 | 0.34 | 0.32 | 77 | 1012.2 |
| 20260831171744 | 79 | 211 | 0.0 | 0.0 | 0.00 | 0.34 | 0.32 | 82 | 1011.8 |
| 20260831171244 | 79 | 105 | 0.0 | 0.0 | 0.00 | 0.34 | 0.32 | 82 | 1011.9 |
| 20260831170744 | 79 | 172 | 0.0 | 0.0 | 0.00 | 0.34 | 0.32 | 81 | 1012.0 |
| 20260831165744 | 79 | 178 | 0.0 | 0.0 | 0.00 | 0.34 | 0.32 | 81 | 1012.0 |
| 20260831165244 | 79 | 160 | 0.0 | 0.0 | 0.00 | 0.34 | 0.32 | 82 | 1011.9 |
| 20260831164244 | 78 | 172 | 0.0 | 0.0 | 0.00 | 0.34 | 0.32 | 85 | 1012.0 |
| 20260831163744 | 78 | 312 | 0.0 | 0.0 | 0.00 | 0.34 | 0.32 | 86 | 1012.2 |
| 20260831162744 | 77 | 161 | 0.0 | 0.0 | 0.00 | 0.34 | 0.32 | 87 | 1012.1 |
| 20260831162244 | 76 | 242 | 0.0 | 0.0 | 0.01 | 0.34 | 0.32 | 88 | 1012.1 |
| 20260831161744 | 76 | 207 | 0.0 | 0.0 | 0.01 | 0.34 | 0.32 | 89 | 1012.1 |
| 20260831160744 | 75 | 223 | 0.0 | 0.0 | 0.01 | 0.34 | 0.32 | 92 | 1012.2 |
| 20260831160244 | 74 | 61 | 0.0 | 0.0 | 0.01 | 0.34 | 0.32 | 92 | 1012.2 |
| 20260831155744 | 74 | 169 | 0.0 | 0.0 | 0.01 | 0.34 | 0.32 | 92 | 1012.2 |
| 20260831155244 | 73 | 267 | 0.0 | 0.0 | 0.01 | 0.34 | 0.32 | 93 | 1012.2 |
| 20260831154244 | 73 | 212 | 0.0 | 0.0 | 0.02 | 0.34 | 0.32 | 93 | 1012.6 |
| 20260831153744 | 73 | 186 | 0.0 | 0.0 | 0.02 | 0.34 | 0.32 | 92 | 1012.6 |
| 20260831153244 | 72 | 196 | 0.0 | 0.0 | 0.02 | 0.34 | 0.32 | 92 | 1012.8 |
| 20260831152244 | 72 | 341 | 0.0 | 0.0 | 0.01 | 0.33 | 0.31 | 92 | 1012.8 |
| 20260831150744 | 70 | 192 | 0.0 | 0.0 | 0.01 | 0.33 | 0.31 | 92 | 1012.5 |
| 20260831150244 | 70 | 281 | 0.0 | 0.0 | 0.01 | 0.33 | 0.31 | 93 | 1012.6 |
| 20260831145744 | 69 | 180 | 0.0 | 0.0 | 0.02 | 0.33 | 0.31 | 93 | 1012.4 |
| 20260831145244 | 69 | 186 | 0.0 | 0.0 | 0.02 | 0.33 | 0.31 | 93 | 1012.6 |
| 20260831144744 | 69 | 240 | 0.0 | 0.0 | 0.02 | 0.33 | 0.31 | 93 | 1012.5 |
| 20260831143744 | 69 | 217 | 0.0 | 0.0 | 0.02 | 0.32 | 0.30 | 93 | 1013.2 |
| 20260831143244 | 69 | 238 | 0.0 | 0.0 | 0.02 | 0.32 | 0.30 | 93 | 1013.1 |
| 20260831142744 | 69 | 148 | 0.0 | 0.0 | 0.02 | 0.32 | 0.30 | 93 | 1013.3 |
| 20260831142244 | 69 | 213 | 0.0 | 0.0 | 0.02 | 0.32 | 0.30 | 93 | 1013.7 |
| 20260831141244 | 69 | 221 | 0.0 | 0.0 | 0.03 | 0.32 | 0.30 | 93 | 1013.8 |
| 20260831140744 | 69 | 200 | 0.0 | 0.0 | 0.03 | 0.32 | 0.30 | 93 | 1013.9 |
| 20260831135801 | 69 | 186 | 0.0 | 0.0 | 0.03 | 0.31 | 0.29 | 93 | 1013.7 |
| 20260831134801 | 69 | 187 | 0.0 | 0.0 | 0.05 | 0.31 | 0.29 | 93 | 1014.1 |
| 20260831134231 | 69 | 221 | 0.0 | 0.0 | 0.05 | 0.30 | 0.28 | 93 | 1014.3 |
| 20260831133231 | 69 | 203 | 0.0 | 0.0 | 0.09 | 0.30 | 0.28 | 93 | 1014.3 |
| 20260831132801 | 69 | 246 | 0.0 | 0.0 | 0.10 | 0.30 | 0.28 | 93 | 1014.0 |
| 20260831132231 | 69 | 142 | 0.0 | 0.0 | 0.11 | 0.30 | 0.28 | 93 | 1014.2 |
| 20260831131731 | 69 | 213 | 0.0 | 0.0 | 0.12 | 0.30 | 0.28 | 93 | 1014.3 |
| 20260831131301 | 69 | 211 | 0.0 | 0.0 | 0.12 | 0.29 | 0.27 | 93 | 1014.7 |
| 20260831130731 | 69 | 204 | 0.0 | 0.0 | 0.12 | 0.29 | 0.27 | 93 | 1014.7 |
| 20260831130231 | 69 | 234 | 0.0 | 0.0 | 0.13 | 0.29 | 0.27 | 93 | 1014.7 |
| 20260831125231 | 69 | 221 | 0.0 | 0.0 | 0.12 | 0.27 | 0.25 | 93 | 1014.1 |
| 20260831124801 | 69 | 150 | 0.0 | 0.0 | 0.13 | 0.26 | 0.24 | 93 | 1014.2 |
| 20260831124301 | 68 | 225 | 0.0 | 0.0 | 0.12 | 0.25 | 0.23 | 93 | 1014.3 |
| 20260831123301 | 68 | 190 | 0.0 | 0.0 | 0.10 | 0.21 | 0.19 | 93 | 1014.3 |
| 20260831122801 | 68 | 215 | 0.0 | 0.0 | 0.09 | 0.20 | 0.18 | 93 | 1014.1 |
| 20260831122301 | 68 | 221 | 0.0 | 0.0 | 0.08 | 0.19 | 0.17 | 93 | 1013.8 |
| 20260831121801 | 68 | 222 | 0.0 | 0.0 | 0.07 | 0.18 | 0.16 | 93 | 1013.6 |
| 20260831121231 | 68 | 225 | 0.0 | 0.0 | 0.06 | 0.17 | 0.15 | 93 | 1013.8 |
| 20260831120801 | 68 | 230 | 0.0 | 0.0 | 0.06 | 0.17 | 0.15 | 93 | 1013.4 |
| 20260831120301 | 67 | 230 | 0.0 | 0.0 | 0.05 | 0.16 | 0.14 | 93 | 1013.3 |
| 20260831115301 | 67 | 153 | 0.0 | 0.0 | 0.04 | 0.15 | 0.13 | 93 | 1012.8 |
| 20260831114731 | 67 | 208 | 0.0 | 0.0 | 0.02 | 0.13 | 0.11 | 93 | 1012.8 |
| 20260831114301 | 67 | 192 | 0.0 | 0.0 | 0.02 | 0.13 | 0.11 | 93 | 1012.9 |
| 20260831113301 | 67 | 192 | 0.0 | 0.0 | 0.00 | 0.11 | 0.09 | 93 | 1012.7 |
| 20260831112801 | 67 | 151 | 0.0 | 0.0 | 0.00 | 0.11 | 0.09 | 93 | 1012.6 |
| 20260831112301 | 67 | 217 | 0.0 | 0.0 | 0.00 | 0.11 | 0.09 | 93 | 1012.5 |
| 20260831111231 | 67 | 219 | 0.0 | 0.0 | 0.00 | 0.11 | 0.09 | 93 | 1012.5 |
| 20260831110731 | 67 | 105 | 0.0 | 0.0 | 0.00 | 0.11 | 0.09 | 93 | 1012.4 |
| 20260831110231 | 67 | 130 | 0.0 | 0.0 | 0.00 | 0.11 | 0.09 | 93 | 1012.9 |
| 20260831105801 | 67 | 177 | 0.0 | 0.0 | 0.00 | 0.11 | 0.09 | 93 | 1012.9 |
| 20260831104301 | 67 | 156 | 0.0 | 0.0 | 0.00 | 0.11 | 0.09 | 93 | 1012.9 |
| 20260831103801 | 67 | 113 | 0.0 | 0.0 | 0.01 | 0.11 | 0.09 | 93 | 1012.8 |
| 20260831103231 | 67 | 113 | 0.0 | 0.0 | 0.01 | 0.11 | 0.09 | 93 | 1012.8 |
| 20260831102801 | 67 | 36 | 0.0 | 0.0 | 0.02 | 0.11 | 0.09 | 93 | 1013.2 |
| 20260831102301 | 67 | 77 | 0.0 | 0.0 | 0.02 | 0.11 | 0.09 | 93 | 1013.3 |
| 20260831101731 | 67 | 88 | 0.0 | 0.0 | 0.03 | 0.11 | 0.09 | 93 | 1013.5 |
| 20260831101231 | 67 | 89 | 0.0 | 0.0 | 0.04 | 0.11 | 0.09 | 93 | 1013.5 |
| 20260831100801 | 67 | 65 | 0.0 | 0.0 | 0.04 | 0.11 | 0.09 | 93 | 1013.6 |
| 20260831095750 | 67 | 103 | 0.0 | 0.0 | 0.05 | 0.11 | 0.09 | 93 | 1013.7 |
| 20260831095249 | 67 | 123 | 0.0 | 0.0 | 0.05 | 0.11 | 0.09 | 93 | 1014.0 |
| 20260831094250 | 67 | 105 | 0.0 | 0.0 | 0.06 | 0.11 | 0.09 | 93 | 1014.2 |
| 20260831093750 | 67 | 96 | 0.0 | 0.0 | 0.05 | 0.10 | 0.08 | 93 | 1014.2 |
| 20260831093250 | 67 | 94 | 0.0 | 0.0 | 0.06 | 0.10 | 0.08 | 93 | 1014.3 |
| 20260831092749 | 67 | 46 | 0.0 | 0.0 | 0.06 | 0.09 | 0.07 | 93 | 1014.5 |
| 20260831092250 | 67 | 46 | 0.0 | 0.0 | 0.06 | 0.09 | 0.07 | 94 | 1014.4 |
| 20260831091750 | 66 | 90 | 0.0 | 0.0 | 0.05 | 0.08 | 0.06 | 94 | 1014.2 |
| 20260831091249 | 66 | 355 | 0.0 | 0.0 | 0.04 | 0.07 | 0.05 | 94 | 1014.6 |
| 20260831090749 | 67 | 355 | 0.0 | 0.0 | 0.05 | 0.07 | 0.05 | 94 | 1014.5 |
| 20260831090249 | 67 | 355 | 0.0 | 0.0 | 0.04 | 0.06 | 0.04 | 94 | 1014.6 |
| 20260831085749 | 67 | 355 | 0.0 | 0.0 | 0.04 | 0.06 | 0.04 | 94 | 1014.5 |
| 20260831085249 | 67 | 355 | 0.0 | 0.0 | 0.04 | 0.06 | 0.04 | 94 | 1014.7 |
| 20260831084749 | 67 | 355 | 0.0 | 0.0 | 0.03 | 0.05 | 0.03 | 94 | 1014.5 |
| 20260831084249 | 67 | 355 | 0.0 | 0.0 | 0.03 | 0.05 | 0.03 | 94 | 1014.5 |
| 20260831083750 | 67 | 355 | 0.0 | 0.0 | 0.03 | 0.05 | 0.03 | 94 | 1014.5 |
| 20260831083249 | 67 | 355 | 0.0 | 0.0 | 0.02 | 0.04 | 0.02 | 94 | 1014.7 |
| 20260831082250 | 67 | 355 | 0.0 | 0.0 | 0.01 | 0.03 | 0.01 | 94 | 1014.6 |
| 20260831081750 | 67 | 355 | 0.0 | 0.0 | 0.01 | 0.03 | 0.01 | 94 | 1014.4 |
| 20260831080749 | 67 | 355 | 0.0 | 0.0 | 0.00 | 0.02 | 0.00 | 94 | 1014.3 |
| 20260831075750 | 67 | 323 | 0.0 | 0.0 | 0.00 | 0.02 | 0.00 | 94 | 1014.3 |
| 20260831075250 | 67 | 355 | 0.0 | 0.0 | 0.00 | 0.02 | 0.00 | 94 | 1013.9 |
| 20260831074749 | 67 | 94 | 0.0 | 0.0 | 0.00 | 0.02 | 0.00 | 94 | 1014.6 |
| 20260831074249 | 67 | 95 | 0.0 | 0.0 | 0.00 | 0.02 | 0.00 | 94 | 1014.7 |
| 20260831073749 | 67 | 95 | 0.0 | 0.0 | 0.00 | 0.02 | 0.00 | 94 | 1014.8 |
| 20260831072750 | 67 | 95 | 0.0 | 0.0 | 0.00 | 0.02 | 0.00 | 94 | 1014.6 |
| 20260831072249 | 67 | 95 | 0.0 | 0.0 | 0.00 | 0.02 | 0.00 | 94 | 1014.5 |
| 20260831071750 | 67 | 95 | 0.0 | 0.0 | 0.00 | 0.02 | 0.00 | 94 | 1014.5 |
| 20260831071250 | 67 | 95 | 0.0 | 0.0 | 0.00 | 0.02 | 0.00 | 94 | 1014.3 |
| 20260831070249 | 67 | 95 | 0.0 | 0.0 | 0.00 | 0.02 | 0.00 | 94 | 1013.8 |
| 20260831065749 | 67 | 81 | 0.0 | 0.0 | 0.00 | 0.02 | 0.00 | 94 | 1013.7 |
| 20260831065249 | 67 | 81 | 0.0 | 0.0 | 0.00 | 0.02 | 0.00 | 94 | 1013.7 |
| 20260831064749 | 67 | 81 | 0.0 | 0.0 | 0.00 | 0.02 | 0.00 | 94 | 1013.8 |
| 20260831064250 | 67 | 98 | 0.0 | 0.0 | 0.00 | 0.02 | 0.00 | 94 | 1013.8 |
| 20260831063750 | 67 | 95 | 0.0 | 0.0 | 0.00 | 0.02 | 0.00 | 94 | 1013.7 |
| 20260831063249 | 67 | 94 | 0.0 | 0.0 | 0.00 | 0.02 | 0.00 | 94 | 1013.8 |
| 20260831062250 | 67 | 93 | 0.0 | 0.0 | 0.00 | 0.02 | 0.00 | 94 | 1014.0 |
| 20260831061750 | 67 | 96 | 0.0 | 0.0 | 0.00 | 0.02 | 0.00 | 94 | 1014.1 |
| 20260831061250 | 68 | 116 | 0.0 | 0.0 | 0.00 | 0.02 | 0.00 | 94 | 1014.2 |
| 20260831055753 | 68 | 75 | 0.0 | 0.0 | 0.00 | 0.02 | 0.00 | 94 | 1014.4 |
| 20260831055253 | 68 | 75 | 0.0 | 0.0 | 0.00 | 0.02 | 0.00 | 94 | 1014.6 |
| 20260831054753 | 68 | 75 | 0.0 | 0.0 | 0.00 | 0.02 | 0.00 | 94 | 1014.6 |
| 20260831054253 | 68 | 69 | 0.0 | 0.0 | 0.00 | 0.02 | 0.00 | 94 | 1014.5 |
| 20260831053753 | 68 | 108 | 0.0 | 0.0 | 0.00 | 0.02 | 0.00 | 94 | 1014.5 |
| 20260831052253 | 68 | 126 | 0.0 | 0.0 | 0.00 | 0.02 | 0.00 | 94 | 1014.6 |
| 20260831051753 | 68 | 127 | 0.0 | 0.0 | 0.00 | 0.02 | 0.00 | 94 | 1014.5 |
| 20260831051253 | 68 | 128 | 0.0 | 0.0 | 0.00 | 0.02 | 0.00 | 94 | 1014.4 |
| 20260831050253 | 68 | 122 | 0.0 | 0.0 | 0.00 | 0.02 | 0.00 | 94 | 1014.2 |
| 20260831045753 | 68 | 55 | 0.0 | 0.0 | 0.00 | 0.02 | 0.00 | 94 | 1014.3 |
| 20260831045253 | 68 | 104 | 0.0 | 0.0 | 0.00 | 0.03 | 0.00 | 94 | 1014.4 |
| 20260831044253 | 68 | 178 | 0.0 | 0.0 | 0.00 | 0.03 | 0.00 | 94 | 1014.5 |
| 20260831043753 | 68 | 180 | 0.0 | 0.0 | 0.00 | 0.03 | 0.00 | 94 | 1014.5 |
| 20260831043253 | 68 | 40 | 0.0 | 0.0 | 0.00 | 0.04 | 0.00 | 94 | 1014.6 |
| 20260831042253 | 68 | 118 | 0.0 | 0.0 | 0.00 | 0.04 | 0.00 | 94 | 1014.5 |
| 20260831041753 | 68 | 116 | 0.0 | 0.0 | 0.00 | 0.04 | 0.00 | 94 | 1014.4 |
| 20260831041253 | 68 | 36 | 0.0 | 0.0 | 0.00 | 0.05 | 0.00 | 94 | 1014.4 |
| 20260831035753 | 68 | 120 | 0.0 | 0.0 | 0.00 | 0.09 | 0.00 | 94 | 1014.4 |
| 20260831035253 | 68 | 67 | 0.0 | 0.0 | 0.00 | 0.10 | 0.09 | 94 | 1014.3 |
| 20260831034753 | 68 | 133 | 0.0 | 0.0 | 0.00 | 0.11 | 0.09 | 94 | 1014.4 |
| 20260831034253 | 69 | 166 | 0.0 | 0.0 | 0.00 | 0.12 | 0.09 | 94 | 1014.6 |
| 20260831033753 | 69 | 161 | 0.0 | 0.0 | 0.00 | 0.13 | 0.09 | 94 | 1014.7 |
| 20260831032753 | 69 | 129 | 0.0 | 0.0 | 0.00 | 0.15 | 0.09 | 94 | 1014.7 |
| 20260831032253 | 69 | 67 | 0.0 | 0.0 | 0.00 | 0.15 | 0.09 | 94 | 1014.7 |
| 20260831031753 | 69 | 69 | 0.0 | 0.0 | 0.00 | 0.15 | 0.09 | 94 | 1014.8 |
| 20260831031253 | 69 | 78 | 0.0 | 0.0 | 0.00 | 0.16 | 0.09 | 94 | 1014.7 |
| 20260831030753 | 69 | 176 | 0.0 | 0.0 | 0.00 | 0.16 | 0.09 | 94 | 1014.7 |
| 20260831030253 | 69 | 136 | 0.0 | 0.0 | 0.00 | 0.17 | 0.09 | 94 | 1014.8 |
| 20260831025753 | 69 | 55 | 0.0 | 0.0 | 0.00 | 0.17 | 0.09 | 94 | 1014.7 |
| 20260831025253 | 69 | 64 | 0.0 | 0.0 | 0.00 | 0.17 | 0.09 | 94 | 1014.7 |
| 20260831024753 | 69 | 85 | 0.0 | 0.0 | 0.00 | 0.17 | 0.09 | 94 | 1014.9 |
| 20260831024253 | 69 | 116 | 0.0 | 0.0 | 0.00 | 0.18 | 0.09 | 94 | 1014.9 |
| 20260831023753 | 69 | 78 | 0.0 | 0.0 | 0.00 | 0.18 | 0.09 | 94 | 1014.9 |
| 20260831023253 | 69 | 78 | 0.0 | 0.0 | 0.00 | 0.18 | 0.09 | 94 | 1014.9 |
| 20260831022753 | 69 | 148 | 0.0 | 0.0 | 0.00 | 0.19 | 0.09 | 94 | 1014.9 |
| 20260831022253 | 69 | 81 | 0.0 | 0.0 | 0.00 | 0.19 | 0.09 | 94 | 1014.7 |
| 20260831020753 | 69 | 63 | 0.0 | 0.0 | 0.00 | 0.19 | 0.09 | 94 | 1014.8 |
| 20260831015755 | 69 | 113 | 0.0 | 0.0 | 0.00 | 0.19 | 0.09 | 94 | 1014.9 |
| 20260831015255 | 69 | 78 | 0.0 | 0.0 | 0.00 | 0.20 | 0.09 | 94 | 1014.9 |
| 20260831014255 | 69 | 78 | 0.0 | 0.0 | 0.00 | 0.20 | 0.09 | 94 | 1014.6 |
| 20260831013755 | 69 | 46 | 0.0 | 0.0 | 0.00 | 0.21 | 0.09 | 94 | 1014.4 |
| 20260831013255 | 69 | 83 | 0.0 | 0.0 | 0.00 | 0.21 | 0.09 | 94 | 1014.4 |
| 20260831012755 | 69 | 355 | 0.0 | 0.0 | 0.00 | 0.22 | 0.09 | 94 | 1014.2 |
| 20260831012255 | 69 | 35 | 0.0 | 0.0 | 0.00 | 0.22 | 0.09 | 94 | 1014.2 |
| 20260831011755 | 69 | 5 | 0.0 | 0.0 | 0.00 | 0.23 | 0.09 | 94 | 1014.1 |
| 20260831011255 | 69 | 53 | 0.0 | 0.0 | 0.00 | 0.24 | 0.09 | 94 | 1014.1 |
| 20260831010755 | 69 | 86 | 0.0 | 0.0 | 0.00 | 0.24 | 0.09 | 94 | 1014.0 |
| 20260831010255 | 69 | 56 | 0.0 | 0.0 | 0.00 | 0.25 | 0.09 | 94 | 1014.1 |
| 20260831005755 | 69 | 49 | 0.0 | 0.0 | 0.00 | 0.25 | 0.09 | 94 | 1014.3 |
| 20260831005255 | 69 | 112 | 0.0 | 0.0 | 0.00 | 0.25 | 0.09 | 94 | 1014.1 |
| 20260831004756 | 69 | 180 | 0.0 | 0.0 | 0.00 | 0.25 | 0.09 | 94 | 1014.1 |
| 20260831004255 | 69 | 59 | 0.0 | 0.0 | 0.00 | 0.25 | 0.09 | 94 | 1014.1 |
| 20260831003755 | 69 | 44 | 0.0 | 0.0 | 0.00 | 0.25 | 0.09 | 94 | 1014.3 |
| 20260831003255 | 69 | 38 | 0.0 | 0.0 | 0.00 | 0.25 | 0.09 | 94 | 1014.2 |
| 20260831002755 | 69 | 28 | 0.0 | 0.0 | 0.00 | 0.25 | 0.09 | 94 | 1014.1 |
| 20260831002255 | 69 | 36 | 0.0 | 0.0 | 0.00 | 0.25 | 0.09 | 94 | 1014.0 |
| 20260831001755 | 69 | 19 | 0.0 | 0.0 | 0.00 | 0.25 | 0.09 | 94 | 1014.0 |
| 20260831001255 | 69 | 34 | 0.0 | 0.0 | 0.00 | 0.25 | 0.09 | 94 | 1014.1 |
| 20260831000755 | 70 | 33 | 0.0 | 0.0 | 0.00 | 0.25 | 0.09 | 94 | 1014.0 |
| 20260831000256 | 70 | 30 | 0.0 | 0.0 | 0.00 | 0.25 | 0.09 | 94 | 1014.0 |
| 20260830235755 | 70 | 16 | 0.0 | 0.0 | 0.00 | 0.25 | 0.09 | 94 | 1014.0 |
| 20260830235255 | 70 | 32 | 0.0 | 0.0 | 0.00 | 0.25 | 0.09 | 93 | 1014.0 |
| 20260830234755 | 70 | 11 | 0.0 | 0.0 | 0.00 | 0.25 | 0.09 | 93 | 1013.9 |
| 20260830234255 | 70 | 123 | 0.0 | 0.0 | 0.00 | 0.25 | 0.09 | 93 | 1013.8 |
| 20260830232755 | 70 | 21 | 0.0 | 0.0 | 0.00 | 0.25 | 0.09 | 93 | 1014.0 |
| 20260830231755 | 70 | 107 | 0.0 | 0.0 | 0.00 | 0.25 | 0.09 | 93 | 1014.0 |
| 20260830231255 | 70 | 44 | 0.0 | 0.0 | 0.00 | 0.25 | 0.09 | 93 | 1013.9 |
| 20260830230755 | 70 | 35 | 0.0 | 0.0 | 0.00 | 0.25 | 0.09 | 93 | 1013.9 |
| 20260830225755 | 70 | 333 | 0.0 | 0.0 | 0.00 | 0.25 | 0.09 | 93 | 1013.7 |
| 20260830225255 | 71 | 38 | 0.0 | 0.0 | 0.00 | 0.25 | 0.09 | 93 | 1013.5 |
| 20260830224755 | 71 | 92 | 0.0 | 0.0 | 0.00 | 0.25 | 0.09 | 93 | 1013.6 |
| 20260830224255 | 71 | 101 | 0.0 | 0.0 | 0.00 | 0.25 | 0.09 | 93 | 1013.7 |
| 20260830223755 | 71 | 54 | 0.0 | 0.0 | 0.01 | 0.25 | 0.09 | 93 | 1013.8 |
| 20260830223255 | 71 | 59 | 0.0 | 0.0 | 0.01 | 0.25 | 0.09 | 93 | 1014.0 |
| 20260830222755 | 71 | 36 | 0.0 | 0.0 | 0.01 | 0.25 | 0.09 | 93 | 1014.3 |
| 20260830222255 | 71 | 53 | 0.0 | 0.0 | 0.01 | 0.25 | 0.09 | 93 | 1014.2 |
| 20260830221755 | 71 | 49 | 0.0 | 0.0 | 0.01 | 0.26 | 0.09 | 93 | 1014.1 |
| 20260830221255 | 71 | 65 | 0.0 | 0.0 | 0.01 | 0.26 | 0.09 | 93 | 1014.2 |
| 20260830215752 | 71 | 128 | 0.0 | 0.0 | 0.02 | 0.26 | 0.09 | 92 | 1014.3 |
| 20260830214752 | 71 | 128 | 0.0 | 0.0 | 0.02 | 0.26 | 0.09 | 91 | 1014.1 |
| 20260830214251 | 72 | 128 | 0.0 | 0.0 | 0.02 | 0.26 | 0.09 | 91 | 1014.1 |
| 20260830213752 | 72 | 106 | 0.0 | 0.0 | 0.01 | 0.25 | 0.08 | 90 | 1014.1 |
| 20260830213251 | 72 | 138 | 0.0 | 0.0 | 0.01 | 0.25 | 0.08 | 91 | 1014.3 |
| 20260830212751 | 72 | 65 | 0.0 | 0.0 | 0.01 | 0.25 | 0.08 | 90 | 1014.5 |
| 20260830212251 | 72 | 65 | 0.0 | 0.0 | 0.01 | 0.25 | 0.08 | 90 | 1014.6 |
| 20260830211751 | 72 | 65 | 0.0 | 0.0 | 0.01 | 0.25 | 0.08 | 89 | 1014.7 |